This demonstration page uses our WeatherBlox Daily Observations layout. Learn more.

Left ArrowRight Arrow

36.19886, -115.1175

Hourly Observations for October 11, 2020

Temp ( °F °C ) Dew Point ( °F °C ) Humidity (%) Winds ( mph kmh ) Pressure ( in mb ) Visibility ( mi km ) Precip ( " mm )
12:53 am 00:53 Clear 78 25.6 37 2.8 23 23 S 13 20 29.77 1008 10 16 0.00 0.00
1:53 am 01:53 Clear 76 24.4 38 3.3 25 25 S 13 20 29.78 1008 10 16 0.00 0.00
2:53 am 02:53 Clear 76 24.4 38 3.3 25 25 SSW 10 17 29.78 1008 10 16 0.00 0.00
3:53 am 03:53 Clear 71 21.7 37 2.8 29 29 WSW 6 9 29.79 1009 10 16 0.00 0.00
4:53 am 04:53 Clear 68 20 38 3.3 33 33 NNW 9 15 29.80 1009 10 16 0.00 0.00
5:53 am 05:53 Clear 69 20.6 32 0 25 25 NNW 10 17 29.82 1010 10 16 0.00 0.00
6:53 am 06:53 Sunny 69 20.6 34 1.1 27 27 WNW 3 6 29.86 1011 10 16 0.00 0.00
7:53 am 07:53 Sunny 71 21.7 33 0.6 25 25 NW 8 13 29.89 1012 10 16 0.00 0.00
8:53 am 08:53 Sunny 75 23.9 36 2.2 24 24 SE 3 6 29.92 1013 10 16 0.00 0.00
9:53 am 09:53 Sunny 81 27.2 36 2.2 20 20 NNW 15 24 29.93 1013 10 16 0.00 0.00
10:53 am 10:53 Sunny 85 29.4 35 1.7 17 17 NNE 15 24 29.92 1013 10 16 0.00 0.00
11:22 am 11:22 Sunny 86 30 35 1.7 16 16 NNW 10 17 29.80 1009 10 16 0.00 0.00
11:53 am 11:53 Sunny 87 30.6 34 1.1 15 15 NW 16 26 29.91 1013 10 16 0.00 0.00
12:53 pm 12:53 Sunny 88 31.1 32 0 13 13 NNW 15 24 29.91 1013 10 16 0.00 0.00
1:53 pm 13:53 Sunny 90 32.2 33 0.6 13 13 NNW 14 22 29.89 1012 10 16 0.00 0.00
2:53 pm 14:53 Sunny 91 32.8 32 0 12 12 NNE 7 11 29.88 1012 10 16 0.00 0.00
3:53 pm 15:53 Sunny 89 31.7 33 0.6 14 14 ESE 6 9 29.90 1013 10 16 0.00 0.00
4:53 pm 16:53 Sunny 89 31.7 33 0.6 14 14 E 8 13 29.90 1013 10 16 0.00 0.00
5:53 pm 17:53 Sunny 87 30.6 33 0.6 14 14 E 6 9 29.91 1013 10 16 0.00 0.00
6:53 pm 18:53 Clear 84 28.9 34 1.1 17 17 S 3 6 29.93 1014 10 16 0.00 0.00
7:53 pm 19:53 Clear 81 27.2 36 2.2 20 20 WNW 5 7 29.95 1014 10 16 0.00 0.00
8:53 pm 20:53 Clear 78 25.6 36 2.2 22 22 NW 5 7 29.97 1015 10 16 0.00 0.00
9:53 pm 21:53 Clear 75 23.9 35 1.7 23 23 NW 6 9 29.99 1016 10 16 0.00 0.00
10:53 pm 22:53 Clear 72 22.2 33 0.6 24 24 NW 7 11 30.00 1016 10 16 0.00 0.00
11:53 pm 23:53 Clear 71 21.7 33 0.6 25 25 SE 3 6 30.02 1017 10 16 0.00 0.00

Powered by AerisWeather